User: anonymous   Login
Location: Bogis-Bossey
(46.3500°N, 6.1667°E)
Time: 23:05:26
(UTC+00:00)
Language:

Cosmos 1743 Rocket - Orbit

View from above orbital plane
View from above orbital plane
View from above satellite
View from above satellite

Ground track
Ground track

The orbit data is extracted from the following two-line orbital elements,

1 16720U 86034B   22334.32320929  .00000246  00000-0  26798-4 0  9999
2 16720  82.5541 183.9016 0020416  12.7717 160.8236 14.83671614953508
Epoch (UTC): 30 November 2022 07:45:25
Eccentricity: 0.0020416
inclination: 82.5541°
perigee height: 603 km
apogee height: 632 km
right ascension of ascending node: 183.9016°
argument of perigee: 12.7717°
revolutions per day: 14.83671614
mean anomaly at epoch: 160.8236°
orbit number at epoch: 95350

The dashed part of the orbit path shows where the satellite is in the earth's shadow,  

DLR